OneWeb SL0186

operational
NORAD ID: 48229 Int'l Des: 2021-031 Owner: ONEWEBN Country: UK Constellation: oneweb
LEOCIRCULARPOLARONEWEB_TYPE

About OneWeb SL0186

Description loading...

Live Position

Loading 3D Globe...

Upcoming Passes

Altitude History

Altitude vs Time

uPlot chart will show altitude changes over time

Two-Line Element Set

1 48229U 21031V 25304.15485664 .00000295 00000-0 76209-3 0 9998
2 48229 87.9023 335.3149 0001993 92.9359 267.1999 13.14502271218294
Epoch: Oct 31, 2025 • Age: 8 hours

Current Status

Altitude 1217.4 km
Velocity 7.25 km/s
Sub-Earth Point 76.73°N, 66.86°W
Launch Date Apr 25, 2021
Age 4.5 years
Type internet

Technical Details

Classification Payload
Mass 148.00 kg
Dry Mass 140.00 kg
Total Mass 148.00 kg
Length 1.30 m
Diameter 1.00 m
Span 5.00 m
Shape Trapezoid+2 pan
Manufacturer ONEWUS
Bus Type ARROW
Phase Status In Orbit
Owner/State ONEWEBN/UK

Large Constellations

Loading constellations...